Time,TemperatureF,DewpointF,PressureIn,WindDirection,WindDirectionDegrees,WindSpeedMPH,WindSpeedGustMPH,Humidity,HourlyPrecipIn,Conditions,Clouds,dailyrainin,SoftwareType,DateUTC
2013-07-29 00:14:00,66.7,65.0,29.98,South,177,0.0,0.0,94,0.00,,,0.00,weatherlink.com 1.10,2013-07-29 04:14:00,
2013-07-29 00:29:00,66.6,65.0,29.98,South,177,0.0,0.0,94,0.00,,,0.00,weatherlink.com 1.10,2013-07-29 04:29:00,
2013-07-29 00:44:00,66.6,65.0,29.99,South,177,0.0,0.0,94,0.00,,,0.00,weatherlink.com 1.10,2013-07-29 04:44:00,
2013-07-29 00:59:00,66.4,65.0,29.99,South,177,0.0,0.0,94,0.00,,,0.00,weatherlink.com 1.10,2013-07-29 04:59:00,
2013-07-29 01:14:00,66.1,64.0,29.98,South,177,0.0,0.0,93,0.00,,,0.00,weatherlink.com 1.10,2013-07-29 05:14:00,
2013-07-29 01:29:00,65.8,64.0,29.98,South,177,0.0,0.0,94,0.00,,,0.00,weatherlink.com 1.10,2013-07-29 05:29:00,
2013-07-29 01:44:00,65.7,64.0,29.98,South,177,0.0,0.0,94,0.00,,,0.00,weatherlink.com 1.10,2013-07-29 05:44:00,
2013-07-29 01:59:00,65.5,64.0,29.98,South,177,0.0,0.0,94,0.00,,,0.00,weatherlink.com 1.10,2013-07-29 05:59:00,
2013-07-29 02:14:00,65.4,64.0,29.97,South,177,0.0,0.0,94,0.00,,,0.00,weatherlink.com 1.10,2013-07-29 06:14:00,
2013-07-29 02:29:00,65.4,64.0,29.97,South,177,0.0,0.0,94,0.00,,,0.00,weatherlink.com 1.10,2013-07-29 06:29:00,
2013-07-29 02:44:00,65.3,64.0,29.97,South,177,0.0,0.0,94,0.00,,,0.00,weatherlink.com 1.10,2013-07-29 06:44:00,
2013-07-29 02:59:00,65.2,64.0,29.97,South,177,0.0,0.0,94,0.00,,,0.00,weatherlink.com 1.10,2013-07-29 06:59:00,
2013-07-29 03:14:00,65.1,63.0,29.97,South,177,0.0,0.0,94,0.00,,,0.00,weatherlink.com 1.10,2013-07-29 07:14:00,
2013-07-29 03:29:00,65.0,63.0,29.97,South,177,0.0,0.0,94,0.00,,,0.00,weatherlink.com 1.10,2013-07-29 07:29:00,
2013-07-29 03:44:00,64.9,63.0,29.97,South,177,0.0,0.0,94,0.00,,,0.00,weatherlink.com 1.10,2013-07-29 07:44:00,
2013-07-29 03:59:00,64.7,63.0,29.97,South,177,0.0,0.0,94,0.00,,,0.00,weatherlink.com 1.10,2013-07-29 07:59:00,
2013-07-29 04:14:00,64.7,63.0,29.98,South,177,0.0,0.0,94,0.00,,,0.00,weatherlink.com 1.10,2013-07-29 08:14:00,
2013-07-29 04:29:00,64.6,63.0,29.98,South,177,0.0,0.0,94,0.00,,,0.00,weatherlink.com 1.10,2013-07-29 08:29:00,
2013-07-29 04:44:00,64.7,63.0,29.97,South,177,0.0,0.0,94,0.00,,,0.00,weatherlink.com 1.10,2013-07-29 08:44:00,
2013-07-29 04:59:00,64.7,63.0,29.98,South,177,0.0,0.0,94,0.00,,,0.00,weatherlink.com 1.10,2013-07-29 08:59:00,
2013-07-29 05:14:00,64.6,63.0,29.97,South,177,0.0,0.0,94,0.00,,,0.00,weatherlink.com 1.10,2013-07-29 09:14:00,
2013-07-29 05:29:00,64.5,63.0,29.97,South,177,0.0,0.0,94,0.00,,,0.00,weatherlink.com 1.10,2013-07-29 09:29:00,
2013-07-29 05:44:00,64.6,63.0,29.98,South,177,0.0,0.0,95,0.00,,,0.00,weatherlink.com 1.10,2013-07-29 09:44:00,
2013-07-29 05:59:00,64.5,63.0,29.98,South,177,0.0,0.0,94,0.00,,,0.00,weatherlink.com 1.10,2013-07-29 09:59:00,
2013-07-29 06:14:00,64.5,63.0,29.98,South,177,0.0,0.0,94,0.00,,,0.00,weatherlink.com 1.10,2013-07-29 10:14:00,
2013-07-29 06:29:00,64.5,63.0,29.98,South,177,0.0,0.0,94,0.00,,,0.00,weatherlink.com 1.10,2013-07-29 10:29:00,
2013-07-29 06:44:00,64.5,63.0,29.98,South,177,0.0,0.0,94,0.00,,,0.00,weatherlink.com 1.10,2013-07-29 10:44:00,
2013-07-29 06:59:00,64.6,63.0,29.98,South,177,0.0,0.0,94,0.00,,,0.00,weatherlink.com 1.10,2013-07-29 10:59:00,
2013-07-29 07:29:00,64.8,63.0,29.98,South,177,0.0,0.0,95,0.00,,,0.00,weatherlink.com 1.10,2013-07-29 11:29:00,
2013-07-29 07:44:00,64.9,64.0,29.98,South,177,0.0,0.0,95,0.00,,,0.00,weatherlink.com 1.10,2013-07-29 11:44:00,
2013-07-29 07:59:00,65.0,63.0,29.98,East,91,0.0,0.0,94,0.00,,,0.00,weatherlink.com 1.10,2013-07-29 11:59:00,
2013-07-29 08:14:00,65.3,64.0,29.99,East,92,0.0,0.0,94,0.00,,,0.00,weatherlink.com 1.10,2013-07-29 12:14:00,
2013-07-29 08:29:00,65.4,64.0,29.99,SSW,196,0.0,1.0,94,0.00,,,0.00,weatherlink.com 1.10,2013-07-29 12:29:00,
2013-07-29 08:44:00,65.7,64.0,29.99,SSW,196,0.0,0.0,94,0.00,,,0.00,weatherlink.com 1.10,2013-07-29 12:44:00,
2013-07-29 08:59:00,65.9,64.0,29.99,SSW,196,0.0,0.0,93,0.00,,,0.00,weatherlink.com 1.10,2013-07-29 12:59:00,
2013-07-29 09:30:00,66.5,65.0,30.00,SSW,196,0.0,0.0,93,0.00,,,0.00,weatherlink.com 1.10,2013-07-29 13:30:00,
2013-07-29 10:00:00,67.6,65.0,29.99,South,177,0.0,1.0,91,0.00,,,0.00,weatherlink.com 1.10,2013-07-29 14:00:00,
2013-07-29 10:45:00,69.1,66.0,29.99,SSW,197,0.0,0.0,88,0.00,,,0.00,weatherlink.com 1.10,2013-07-29 14:45:00,
2013-07-29 11:15:00,70.3,67.0,29.99,NNE,33,3.0,4.0,89,0.00,,,0.00,weatherlink.com 1.10,2013-07-29 15:15:00,
2013-07-29 11:30:00,70.7,66.0,29.99,NNE,30,0.0,1.0,86,0.00,,,0.00,weatherlink.com 1.10,2013-07-29 15:30:00,
2013-07-29 12:15:00,72.0,67.0,29.99,NNE,22,0.0,0.0,85,0.00,,,0.00,weatherlink.com 1.10,2013-07-29 16:15:00,
2013-07-29 12:30:00,72.9,68.0,29.98,SSW,198,0.0,2.0,84,0.00,,,0.00,weatherlink.com 1.10,2013-07-29 16:30:00,
2013-07-29 13:15:00,75.9,69.0,29.97,SW,234,0.0,2.0,78,0.00,,,0.00,weatherlink.com 1.10,2013-07-29 17:15:00,
2013-07-29 13:45:00,76.0,68.0,29.97,WSW,242,0.0,1.0,76,0.00,,,0.00,weatherlink.com 1.10,2013-07-29 17:45:00,
2013-07-29 14:00:00,76.7,67.0,29.96,SSW,204,0.0,2.0,73,0.00,,,0.00,weatherlink.com 1.10,2013-07-29 18:00:00,
2013-07-29 14:15:00,76.8,68.0,29.96,WSW,239,0.0,0.0,74,0.00,,,0.00,weatherlink.com 1.10,2013-07-29 18:15:00,
2013-07-29 14:30:00,79.1,67.0,29.96,SW,221,2.0,5.0,67,0.00,,,0.00,weatherlink.com 1.10,2013-07-29 18:30:00,
2013-07-29 14:45:00,80.4,68.0,29.95,SW,229,1.0,4.0,66,0.00,,,0.00,weatherlink.com 1.10,2013-07-29 18:45:00,
2013-07-29 15:31:00,80.5,66.0,29.93,South,177,0.0,3.0,61,0.00,,,0.00,weatherlink.com 1.10,2013-07-29 19:31:00,
2013-07-29 15:46:00,81.3,66.0,29.93,SSW,201,0.0,6.0,59,0.00,,,0.00,weatherlink.com 1.10,2013-07-29 19:46:00,
2013-07-29 16:01:00,79.4,66.0,29.94,SW,223,0.0,0.0,63,0.00,,,0.00,weatherlink.com 1.10,2013-07-29 20:01:00,
2013-07-29 16:16:00,79.5,66.0,29.93,SW,214,0.0,3.0,63,0.00,,,0.00,weatherlink.com 1.10,2013-07-29 20:16:00,
2013-07-29 16:31:00,78.2,67.0,29.93,SW,214,0.0,0.0,68,0.00,,,0.00,weatherlink.com 1.10,2013-07-29 20:31:00,
2013-07-29 17:01:00,68.1,63.0,29.94,SW,220,0.0,8.0,84,0.00,,,0.00,weatherlink.com 1.10,2013-07-29 21:01:00,
2013-07-29 17:16:00,67.1,63.0,29.94,South,179,0.0,5.0,87,0.00,,,0.00,weatherlink.com 1.10,2013-07-29 21:16:00,
2013-07-29 17:31:00,66.5,64.0,29.95,South,179,0.0,0.0,90,0.00,,,0.00,weatherlink.com 1.10,2013-07-29 21:31:00,
2013-07-29 17:46:00,66.6,64.0,29.95,South,187,0.0,1.0,90,0.00,,,0.00,weatherlink.com 1.10,2013-07-29 21:46:00,
2013-07-29 18:01:00,66.6,64.0,29.95,South,187,0.0,0.0,90,0.00,,,0.00,weatherlink.com 1.10,2013-07-29 22:01:00,
2013-07-29 18:16:00,66.4,64.0,29.95,South,187,0.0,0.0,91,0.00,,,0.00,weatherlink.com 1.10,2013-07-29 22:16:00,
2013-07-29 18:31:00,66.4,64.0,29.98,WSW,243,0.0,2.0,92,0.00,,,0.00,weatherlink.com 1.10,2013-07-29 22:31:00,
2013-07-29 19:01:00,66.5,64.0,29.98,WSW,243,0.0,0.0,91,0.00,,,0.00,weatherlink.com 1.10,2013-07-29 23:01:00,
2013-07-29 19:31:00,66.2,63.0,30.00,WSW,242,0.0,0.0,90,0.00,,,0.00,weatherlink.com 1.10,2013-07-29 23:31:00,
2013-07-29 19:46:00,65.9,63.0,29.98,WSW,242,0.0,0.0,90,0.00,,,0.00,weatherlink.com 1.10,2013-07-29 23:46:00,
2013-07-29 20:16:00,66.0,63.0,29.99,NW,306,0.0,0.0,91,0.00,,,0.00,weatherlink.com 1.10,2013-07-30 00:16:00,
2013-07-29 20:31:00,65.8,63.0,29.99,NW,306,0.0,0.0,91,0.00,,,0.00,weatherlink.com 1.10,2013-07-30 00:31:00,
2013-07-29 20:46:00,65.2,63.0,30.00,NW,306,0.0,0.0,92,0.00,,,0.00,weatherlink.com 1.10,2013-07-30 00:46:00,
2013-07-29 21:01:00,65.0,63.0,30.01,NW,306,0.0,0.0,92,0.00,,,0.00,weatherlink.com 1.10,2013-07-30 01:01:00,
2013-07-29 21:16:00,64.6,62.0,30.02,NW,306,0.0,0.0,92,0.00,,,0.00,weatherlink.com 1.10,2013-07-30 01:16:00,
2013-07-29 22:16:00,63.7,62.0,30.02,NW,306,0.0,0.0,93,0.00,,,0.00,weatherlink.com 1.10,2013-07-30 02:16:00,
2013-07-29 23:01:00,63.3,61.0,30.02,NW,306,0.0,0.0,93,0.00,,,0.00,weatherlink.com 1.10,2013-07-30 03:01:00,